Overview Statistics Trail Chart Weather Telemetry Raw packets
 

This is the latest recevied weather packets stored in our database for station/object N0QWM. If no packets are shown the sender has not sent any weather packets the latest 10 day(s).

<< 93 94 95 96 97 98 99 >>
Time Temp. Humidity Pressure Rain* Wind** Luminosity Snow
1787957397 32.78° C 51% 1020.3 hPa 0 mm - 62 W/m² -
1787957097 32.78° C 52% 1020.3 hPa 0 mm - 65 W/m² -
1787956797 33.33° C 51% 1020 hPa 0 mm - 61 W/m² -
1787956492 33.33° C 51% 1020.2 hPa 0 mm - 55 W/m² -
1787956187 33.33° C 50% 1020.2 hPa 0 mm - 58 W/m² -
1787955886 33.33° C 50% 1020.3 hPa 0 mm - 70 W/m² -
1787955583 32.78° C 51% 1020.4 hPa 0 mm - 60 W/m² -
1787955278 33.33° C 50% 1020.4 hPa 0 mm - 61 W/m² -
1787954972 33.89° C 50% 1020.3 hPa 0 mm - 66 W/m² -
1787954668 34.44° C 48% 1020.5 hPa 0 mm - 78 W/m² -
1787954367 35° C 49% 1020.1 hPa 0 mm - 265 W/m² -
1787954063 35° C 49% 1020.2 hPa 0 mm - 308 W/m² -
1787953761 34.44° C 50% 1020.4 hPa 0 mm - 87 W/m² -
1787953457 34.44° C 50% 1020.4 hPa 0 mm - 71 W/m² -
1787953155 34.44° C 51% 1020.1 hPa 0 mm - 67 W/m² -
1787952854 34.44° C 50% 1020.3 hPa 0 mm - 69 W/m² -
1787952548 34.44° C 50% 1020.4 hPa 0 mm - 69 W/m² -
1787952247 35° C 49% 1020.2 hPa 0 mm - 328 W/m² -
1787951944 35° C 49% 1020.4 hPa 0 mm - 377 W/m² -
1787951639 34.44° C 47% 1020.3 hPa 0 mm - 392 W/m² -
1787951335 33.89° C 48% 1020.3 hPa 0 mm - 399 W/m² -
1787951030 33.33° C 49% 1020.5 hPa 0 mm - 322 W/m² -
1787950725 34.44° C 47% 1020.5 hPa 0 mm - 265 W/m² -
1787950421 34.44° C 46% 1020.3 hPa 0 mm - 392 W/m² -
1787950118 34.44° C 47% 1020.5 hPa 0 mm - 390 W/m² -

* Rain latest hour (hover to see other rain measurements)
** Current wind speed in m/s (hover to see current wind gust speed)